PHCSU EDSB-LOWZ

Flight info

Callsign PHCSU
Flight time 0h 55m
Altitude 25000
Route EDSB/03 GAGS1Y GAGSI DCT TEDGO DCT KUNOD DCT KPT DCT KOGOL DCT ERKIR DCT LOWZ/08
Aircraft SF50/L-SR/S

Departure

Time 2026-04-30 21:43
Airport Karlsruhe Baden-Baden Airport (EDSB)

Arrival

Time 2026-04-30 22:38
Airport Zell am See Airfield (LOWZ)
Time Latitude Longitude Altitude Speed Heading
2026-04-30 21:27 48.78364 8.09088 409 ft 0 kts 282°
2026-04-30 21:34 48.78326 8.08978 409 ft 11 kts 210°
2026-04-30 21:34 48.78264 8.08919 409 ft 10 kts 213°
2026-04-30 21:35 48.78213 8.08854 410 ft 9 kts 220°
2026-04-30 21:35 48.78156 8.08801 410 ft 11 kts 209°
2026-04-30 21:35 48.78074 8.08732 410 ft 17 kts 200°
2026-04-30 21:35 48.77953 8.08625 410 ft 22 kts 216°
2026-04-30 21:36 48.77820 8.08495 410 ft 23 kts 211°
2026-04-30 21:36 48.77712 8.08358 410 ft 18 kts 215°
2026-04-30 21:37 48.77486 8.08138 410 ft 13 kts 211°
2026-04-30 21:37 48.77416 8.08021 410 ft 17 kts 290°
2026-04-30 21:37 48.77436 8.07884 410 ft 13 kts 213°
2026-04-30 21:37 48.77362 8.07806 410 ft 12 kts 212°
2026-04-30 21:38 48.77304 8.07751 410 ft 8 kts 211°
2026-04-30 21:38 48.77266 8.07716 410 ft 5 kts 211°
2026-04-30 21:38 48.77244 8.07696 410 ft 2 kts 211°
2026-04-30 21:38 48.77238 8.07691 410 ft 0 kts 212°
2026-04-30 21:40 48.77192 8.07647 410 ft 16 kts 212°
2026-04-30 21:40 48.77073 8.07534 410 ft 19 kts 212°
2026-04-30 21:40 48.76942 8.07412 410 ft 24 kts 211°
2026-04-30 21:41 48.76835 8.07311 410 ft 1 kts 205°
2026-04-30 21:41 48.76834 8.07310 410 ft 2 kts 204°
2026-04-30 21:41 48.76774 8.07251 410 ft 18 kts 217°
2026-04-30 21:42 48.76758 8.07084 410 ft 20 kts 306°
2026-04-30 21:42 48.76821 8.07038 409 ft 8 kts
2026-04-30 21:42 48.76911 8.07091 409 ft 22 kts 30°
2026-04-30 21:42 48.77112 8.07276 409 ft 56 kts 32°
2026-04-30 21:43 48.77639 8.07771 500 ft 113 kts 32°
2026-04-30 21:43 48.78343 8.08433 963 ft 126 kts 32°
2026-04-30 21:43 48.79089 8.09216 1482 ft 138 kts 37°
2026-04-30 21:43 48.79982 8.10097 1704 ft 166 kts 30°
2026-04-30 21:44 48.81001 8.10993 2152 ft 169 kts 31°
2026-04-30 21:44 48.82006 8.11926 2666 ft 170 kts 31°
2026-04-30 21:44 48.83018 8.12869 3153 ft 171 kts 32°
2026-04-30 21:44 48.84040 8.13825 3651 ft 173 kts 31°
2026-04-30 21:45 48.85055 8.14772 4152 ft 174 kts 31°
2026-04-30 21:45 48.86091 8.15740 4636 ft 175 kts 31°
2026-04-30 21:45 48.87133 8.16713 5108 ft 177 kts 31°
2026-04-30 21:45 48.88181 8.17704 5560 ft 178 kts 34°
2026-04-30 21:46 48.88893 8.19187 5970 ft 180 kts 77°
2026-04-30 21:46 48.88803 8.21068 6403 ft 180 kts 103°
2026-04-30 21:46 48.88524 8.22929 6816 ft 181 kts 102°
2026-04-30 21:46 48.88266 8.24815 7221 ft 183 kts 102°
2026-04-30 21:47 48.88004 8.26710 7599 ft 184 kts 103°
2026-04-30 21:47 48.87451 8.28449 7942 ft 185 kts 129°
2026-04-30 21:47 48.86462 8.29693 8293 ft 186 kts 152°
2026-04-30 21:47 48.85300 8.30505 8619 ft 187 kts 155°
2026-04-30 21:48 48.84112 8.31381 9025 ft 193 kts 154°
2026-04-30 21:48 48.82929 8.32243 9925 ft 187 kts 154°
2026-04-30 21:48 48.81743 8.33106 10683 ft 190 kts 154°
2026-04-30 21:48 48.80541 8.33973 11424 ft 193 kts 154°
2026-04-30 21:49 48.79320 8.34859 12123 ft 195 kts 154°
2026-04-30 21:49 48.78087 8.35753 12787 ft 198 kts 154°
2026-04-30 21:49 48.76842 8.36658 13423 ft 200 kts 154°
2026-04-30 21:49 48.75578 8.37576 14035 ft 202 kts 154°
2026-04-30 21:50 48.74302 8.38502 14617 ft 205 kts 154°
2026-04-30 21:50 48.73011 8.39436 15199 ft 206 kts 154°
2026-04-30 21:50 48.71704 8.40381 15735 ft 209 kts 154°
2026-04-30 21:50 48.70385 8.41335 16258 ft 211 kts 154°
2026-04-30 21:51 48.69066 8.42286 16770 ft 213 kts 154°
2026-04-30 21:51 48.67723 8.43259 17264 ft 215 kts 154°
2026-04-30 21:51 48.66366 8.44236 17731 ft 217 kts 154°
2026-04-30 21:51 48.65008 8.45243 18173 ft 218 kts 150°
2026-04-30 21:52 48.63870 8.46752 18582 ft 220 kts 128°
2026-04-30 21:52 48.63142 8.48783 18997 ft 222 kts 108°
2026-04-30 21:52 48.62920 8.51082 19401 ft 222 kts 90°
2026-04-30 21:52 48.62908 8.53428 19783 ft 224 kts 91°
2026-04-30 21:53 48.62872 8.55770 20167 ft 225 kts 91°
2026-04-30 21:53 48.62842 8.58144 20535 ft 227 kts 91°
2026-04-30 21:53 48.62813 8.60537 20896 ft 228 kts 91°
2026-04-30 21:53 48.62784 8.62934 21278 ft 228 kts 91°
2026-04-30 21:54 48.62754 8.65323 21657 ft 227 kts 91°
2026-04-30 21:54 48.62723 8.67709 22027 ft 227 kts 91°
2026-04-30 21:54 48.62695 8.70098 22396 ft 226 kts 91°
2026-04-30 21:54 48.62663 8.72480 22752 ft 226 kts 91°
2026-04-30 21:55 48.62633 8.74860 23107 ft 226 kts 91°
2026-04-30 21:55 48.62601 8.77220 23449 ft 225 kts 91°
2026-04-30 21:55 48.62570 8.79589 23788 ft 225 kts 91°
2026-04-30 21:55 48.62537 8.81960 24123 ft 225 kts 91°
2026-04-30 21:56 48.62502 8.84325 24456 ft 225 kts 91°
2026-04-30 21:56 48.62470 8.86679 24792 ft 224 kts 91°
2026-04-30 21:56 48.62434 8.89019 24995 ft 231 kts 91°
2026-04-30 21:56 48.62399 8.91514 25005 ft 243 kts 91°
2026-04-30 21:57 48.62359 8.94153 25009 ft 253 kts 91°
2026-04-30 21:57 48.62318 8.96851 25009 ft 261 kts 91°
2026-04-30 21:57 48.62277 8.99592 25011 ft 267 kts 91°
2026-04-30 21:57 48.62233 9.02438 25008 ft 274 kts 91°
2026-04-30 21:58 48.62187 9.05344 25011 ft 280 kts 91°
2026-04-30 21:58 48.62141 9.08321 25010 ft 286 kts 91°
2026-04-30 21:58 48.62090 9.11366 25009 ft 292 kts 91°
2026-04-30 21:58 48.62039 9.14456 25009 ft 296 kts 91°
2026-04-30 21:59 48.61987 9.17599 25009 ft 300 kts 91°
2026-04-30 21:59 48.61928 9.20765 25008 ft 302 kts 92°
2026-04-30 21:59 48.61549 9.23893 24999 ft 305 kts 108°
2026-04-30 22:00 48.59265 9.29259 24992 ft 309 kts 137°
2026-04-30 22:00 48.56000 9.33458 24998 ft 311 kts 139°
2026-04-30 22:00 48.54357 9.35594 24998 ft 312 kts 139°
2026-04-30 22:01 48.52704 9.37725 24999 ft 313 kts 139°
2026-04-30 22:01 48.51051 9.39851 24991 ft 313 kts 139°
2026-04-30 22:01 48.49393 9.41987 24994 ft 313 kts 139°
2026-04-30 22:01 48.47736 9.44118 24999 ft 313 kts 139°
2026-04-30 22:02 48.46078 9.46249 24999 ft 313 kts 139°
2026-04-30 22:02 48.44417 9.48381 24999 ft 313 kts 140°
2026-04-30 22:02 48.42759 9.50505 24999 ft 313 kts 139°
2026-04-30 22:02 48.41097 9.52635 24999 ft 313 kts 140°
2026-04-30 22:03 48.39440 9.54752 24999 ft 313 kts 140°
2026-04-30 22:03 48.37783 9.56874 24999 ft 313 kts 140°
2026-04-30 22:03 48.36126 9.58989 24995 ft 313 kts 140°
2026-04-30 22:03 48.34464 9.61110 24993 ft 313 kts 140°
2026-04-30 22:04 48.32806 9.63223 24991 ft 313 kts 140°
2026-04-30 22:04 48.31132 9.65307 24995 ft 313 kts 140°
2026-04-30 22:04 48.27779 9.69486 24999 ft 313 kts 140°
2026-04-30 22:05 48.26102 9.71583 25000 ft 314 kts 140°
2026-04-30 22:05 48.24421 9.73676 25000 ft 314 kts 140°
2026-04-30 22:05 48.22745 9.75763 25000 ft 315 kts 140°
2026-04-30 22:05 48.21052 9.77868 25000 ft 315 kts 140°
2026-04-30 22:06 48.19368 9.79961 25001 ft 315 kts 140°
2026-04-30 22:06 48.15992 9.84151 24992 ft 315 kts 140°
2026-04-30 22:06 48.14321 9.86224 25001 ft 315 kts 140°
2026-04-30 22:07 48.12630 9.88319 25001 ft 315 kts 140°
2026-04-30 22:07 48.10938 9.90417 25001 ft 315 kts 140°
2026-04-30 22:07 48.09243 9.92513 25001 ft 315 kts 140°
2026-04-30 22:07 48.07556 9.94597 25001 ft 315 kts 140°
2026-04-30 22:08 48.05865 9.96686 25001 ft 315 kts 140°
2026-04-30 22:08 48.04173 9.98773 24995 ft 315 kts 140°
2026-04-30 22:08 48.02488 10.00849 25001 ft 315 kts 140°
2026-04-30 22:08 48.00792 10.02935 25001 ft 315 kts 140°
2026-04-30 22:09 47.99098 10.05018 25001 ft 315 kts 140°
2026-04-30 22:09 47.97414 10.07090 24997 ft 314 kts 140°
2026-04-30 22:09 47.95719 10.09170 24993 ft 314 kts 140°
2026-04-30 22:09 47.94052 10.11214 24996 ft 314 kts 140°
2026-04-30 22:10 47.92343 10.13309 25001 ft 314 kts 140°
2026-04-30 22:10 47.90672 10.15358 25001 ft 314 kts 140°
2026-04-30 22:10 47.88987 10.17422 24995 ft 314 kts 140°
2026-04-30 22:10 47.87298 10.19487 24992 ft 314 kts 141°
2026-04-30 22:11 47.83918 10.23615 25000 ft 313 kts 140°
2026-04-30 22:11 47.82231 10.25674 25000 ft 313 kts 141°
2026-04-30 22:11 47.80542 10.27729 25000 ft 313 kts 141°
2026-04-30 22:12 47.78856 10.29779 25000 ft 313 kts 141°
2026-04-30 22:12 47.77165 10.31838 25000 ft 313 kts 140°
2026-04-30 22:12 47.75661 10.34155 24992 ft 313 kts 126°
2026-04-30 22:12 47.74587 10.36957 24994 ft 312 kts 113°
2026-04-30 22:13 47.73997 10.40046 24992 ft 312 kts 100°
2026-04-30 22:13 47.73650 10.43225 24995 ft 312 kts 99°
2026-04-30 22:13 47.73286 10.46406 24996 ft 312 kts 99°
2026-04-30 22:13 47.72920 10.49576 24996 ft 312 kts 99°
2026-04-30 22:14 47.72558 10.52755 24996 ft 312 kts 99°
2026-04-30 22:14 47.72197 10.55929 24996 ft 312 kts 99°
2026-04-30 22:14 47.71835 10.59069 24992 ft 312 kts 99°
2026-04-30 22:14 47.71469 10.62245 24996 ft 312 kts 99°
2026-04-30 22:15 47.71097 10.65462 24994 ft 312 kts 99°
2026-04-30 22:15 47.70729 10.68639 24997 ft 312 kts 99°
2026-04-30 22:15 47.70360 10.71818 24997 ft 312 kts 99°
2026-04-30 22:15 47.69991 10.74987 24991 ft 312 kts 99°
2026-04-30 22:16 47.69624 10.78131 24997 ft 312 kts 99°
2026-04-30 22:16 47.69253 10.81301 24997 ft 312 kts 99°
2026-04-30 22:17 47.68135 10.90827 24992 ft 312 kts 100°
2026-04-30 22:17 47.67760 10.94010 24991 ft 312 kts 100°
2026-04-30 22:17 47.67008 11.00359 24995 ft 312 kts 100°
2026-04-30 22:18 47.66630 11.03541 24997 ft 313 kts 100°
2026-04-30 22:18 47.65871 11.09881 24993 ft 313 kts 100°
2026-04-30 22:19 47.65107 11.16243 24997 ft 313 kts 100°
2026-04-30 22:19 47.64729 11.19382 24991 ft 313 kts 100°
2026-04-30 22:19 47.63961 11.25750 24992 ft 313 kts 100°
2026-04-30 22:20 47.63575 11.28932 25020 ft 312 kts 100°
2026-04-30 22:20 47.62784 11.35433 23197 ft 321 kts 100°
2026-04-30 22:20 47.62393 11.38626 22168 ft 307 kts 100°
2026-04-30 22:21 47.61987 11.41669 21166 ft 294 kts 102°
2026-04-30 22:21 47.61588 11.44586 20177 ft 285 kts 101°
2026-04-30 22:21 47.61217 11.47418 19185 ft 275 kts 101°
2026-04-30 22:21 47.60844 11.50150 18186 ft 266 kts 101°
2026-04-30 22:22 47.60479 11.52793 17193 ft 258 kts 101°
2026-04-30 22:22 47.60129 11.55342 16209 ft 253 kts 101°
2026-04-30 22:22 47.59782 11.57868 15222 ft 248 kts 101°
2026-04-30 22:22 47.59440 11.60359 14233 ft 245 kts 101°
2026-04-30 22:23 47.59100 11.62822 13245 ft 243 kts 101°
2026-04-30 22:23 47.58762 11.65261 12254 ft 241 kts 101°
2026-04-30 22:23 47.58428 11.67685 11265 ft 239 kts 102°
2026-04-30 22:23 47.58095 11.70084 10283 ft 237 kts 102°
2026-04-30 22:24 47.57777 11.72373 10001 ft 210 kts 102°
2026-04-30 22:24 47.57499 11.74380 9985 ft 200 kts 101°
2026-04-30 22:24 47.57198 11.76535 10000 ft 226 kts 102°
2026-04-30 22:24 47.56865 11.78920 10009 ft 246 kts 101°
2026-04-30 22:25 47.56511 11.81466 10007 ft 258 kts 102°
2026-04-30 22:25 47.56141 11.84100 10009 ft 265 kts 102°
2026-04-30 22:25 47.55892 11.85869 10009 ft 268 kts 102°
2026-04-30 22:25 47.55382 11.89515 10007 ft 272 kts 102°
2026-04-30 22:26 47.54609 11.95009 10007 ft 275 kts 102°
2026-04-30 22:26 47.54346 11.96874 10007 ft 275 kts 102°
2026-04-30 22:26 47.53947 11.99644 10006 ft 275 kts 103°
2026-04-30 22:27 47.53207 12.02252 9995 ft 275 kts 121°
2026-04-30 22:27 47.52176 12.04623 9996 ft 276 kts 122°
2026-04-30 22:27 47.50114 12.09473 9999 ft 280 kts 122°
2026-04-30 22:28 47.48018 12.14337 9998 ft 279 kts 125°
2026-04-30 22:28 47.46594 12.16260 9991 ft 279 kts 145°
2026-04-30 22:29 47.41816 12.21020 9989 ft 278 kts 132°
2026-04-30 22:29 47.40624 12.23265 9993 ft 277 kts 127°
2026-04-30 22:30 47.35427 12.31524 9992 ft 273 kts 133°
2026-04-30 22:31 47.31719 12.37321 9989 ft 224 kts 133°
2026-04-30 22:32 47.29451 12.42408 9831 ft 190 kts 103°
2026-04-30 22:32 47.28866 12.46714 8307 ft 227 kts 103°
2026-04-30 22:33 47.27739 12.52739 7224 ft 155 kts 102°
2026-04-30 22:33 47.27784 12.55328 7175 ft 113 kts 88°
2026-04-30 22:34 47.27954 12.59345 6227 ft 143 kts 86°
2026-04-30 22:35 47.28087 12.62352 5047 ft 148 kts 86°
2026-04-30 22:36 47.28332 12.68041 3639 ft 89 kts 86°
2026-04-30 22:36 47.28502 12.69045 3746 ft 117 kts 64°
2026-04-30 22:37 47.28917 12.72459 3763 ft 116 kts 108°
2026-04-30 22:37 47.28637 12.73700 3426 ft 149 kts 103°
2026-04-30 22:37 47.28725 12.76398 3057 ft 110 kts 77°
2026-04-30 22:38 47.29031 12.78326 2504 ft 82 kts 77°
2026-04-30 22:38 47.29178 12.79217 2471 ft 30 kts 76°
2026-04-30 22:39 47.29228 12.79409 2471 ft 11 kts 359°
2026-04-30 22:39 47.29278 12.79299 2468 ft 5 kts 257°
2026-04-30 22:40 47.29271 12.79256 2469 ft 1 kts 251°
2026-04-30 22:41 47.29226 12.79005 2470 ft 6 kts 257°
2026-04-30 22:41 47.29212 12.78920 2470 ft 2 kts 256°
2026-04-30 22:42 47.29211 12.78827 2470 ft 0 kts 346°
2026-04-30 22:43 47.29212 12.78826 2470 ft 0 kts 360°